Location: Gammelsbach
(49.5261°N, 8.9630°E)
Time: 21:06:59
(UTC+00:00)

Cosmos 2016 Rocket - Pass Details

Date: 17 June 2025
Orbit: 947 x 998 km, 83.0° (Epoch: 16 July)

Event Time Altitude Azimuth Distance (km) Brightness Sun altitude
Rises 20:26:36 0° 352° (N) 3,709 8.1 -7.0°
Reaches altitude 10° 20:29:10 10° 355° (N) 2,763 7.3 -7.3°
Maximum altitude 20:35:29 64° 77° (ENE) 1,099 4.2 -7.9°
Drops below altitude 10° 20:41:47 10° 159° (SSE) 2,762 5.8 -8.5°
Enters shadow 20:42:02 - 159° (SSE) 2,857 5.8 -8.6°
